Location: ??????
(55.7522°N, 37.6156°E)
Time: 12:30:19
(UTC+00:00)

USA 229 DEB - Pass Details

Date: 18 December 2025
Orbit: 844 x 1364 km, 63.4° (Epoch: 10 January)

Event Time Altitude Azimuth Distance (km) Brightness Sun altitude
Exits shadow 03:01:13 39° 289° (WNW) 1,723 4.2 -22.6°
Maximum altitude 03:03:58 60° 230° (SW) 1,403 4.0 -22.2°
Drops below altitude 10° 03:11:55 10° 154° (SSE) 3,343 6.8 -21.1°
Sets 03:14:54 0° 151° (SSE) 4,350 7.5 -20.7°
